Location: Spruce Knob
(38.6995°N, 79.5330°W)
Time: 18:28:04
(UTC-04:00)

MOZHAYETS 4 - Pass Details

Date: 04 June 2024
Orbit: 652 x 670 km, 98.3° (Epoch: 24 June)

Event Time Altitude Azimuth Distance (km) Brightness Sun altitude
Rises 04:08:27 0° 147° (SSE) 2,977 10.9 -16.8°
Reaches altitude 10° 04:10:47 10° 139° (SE) 2,066 10.2 -16.5°
Maximum altitude 04:14:58 39° 71° (ENE) 985 9.1 -15.9°
Drops below altitude 10° 04:19:09 10° 3° (N) 2,070 11.0 -15.3°
Sets 04:21:28 0° 356° (N) 2,984 11.7 -15.0°
